Date_Time,Julian_Date,Latitude,Longitude,Instrument_Depth,U,V,Speed,Direction
(yyyy-mm-dd hh:mn:ss UTC),(JD),(+ deg. North),(+ deg. East),(m),(cm/s),(cm/s),(cm/s),(deg True)
1982-08-20 17:30:00 UTC,2445202.229167,28.7317,-95.2428,0201,-11.98,-18.45,22.0000,213.0000
1982-08-20 18:00:00 UTC,2445202.250000,28.7317,-95.2428,0201,-11.85,-19.71,23.0000,211.0000
1982-08-20 18:30:00 UTC,2445202.270833,28.7317,-95.2428,0201,-11.50,-19.92,23.0000,210.0000
1982-08-20 19:00:00 UTC,2445202.291667,28.7317,-95.2428,0201,-10.67,-19.24,22.0000,209.0000
1982-08-20 19:30:00 UTC,2445202.312500,28.7317,-95.2428,0201,-9.99,-19.60,22.0000,207.0000
1982-08-20 20:00:00 UTC,2445202.333333,28.7317,-95.2428,0201,-9.30,-19.94,22.0000,205.0000
1982-08-20 20:30:00 UTC,2445202.354167,28.7317,-95.2428,0201,-8.95,-20.10,22.0000,204.0000
1982-08-20 21:00:00 UTC,2445202.375000,28.7317,-95.2428,0201,-8.99,-21.17,23.0000,203.0000
1982-08-20 21:30:00 UTC,2445202.395833,28.7317,-95.2428,0201,-10.17,-22.84,25.0000,204.0000
1982-08-20 22:00:00 UTC,2445202.416667,28.7317,-95.2428,0201,-11.84,-24.27,27.0000,206.0000
1982-08-20 22:30:00 UTC,2445202.437500,28.7317,-95.2428,0201,-12.27,-25.17,28.0000,206.0000
1982-08-20 23:00:00 UTC,2445202.458333,28.7317,-95.2428,0201,-12.26,-26.28,29.0000,205.0000
1982-08-20 23:30:00 UTC,2445202.479167,28.7317,-95.2428,0201,-11.80,-26.49,29.0000,204.0000
1982-08-21 00:00:00 UTC,2445202.500000,28.7317,-95.2428,0201,-10.86,-26.89,29.0000,202.0000
1982-08-21 00:30:00 UTC,2445202.520833,28.7317,-95.2428,0201,-10.75,-28.01,30.0000,201.0000
1982-08-21 01:00:00 UTC,2445202.541667,28.7317,-95.2428,0201,-11.72,-27.62,30.0000,203.0000
1982-08-21 01:30:00 UTC,2445202.562500,28.7317,-95.2428,0201,-12.11,-28.54,31.0000,203.0000
1982-08-21 02:00:00 UTC,2445202.583333,28.7317,-95.2428,0201,-10.75,-28.01,30.0000,201.0000
1982-08-21 02:30:00 UTC,2445202.604167,28.7317,-95.2428,0201,-8.65,-26.63,28.0000,198.0000
1982-08-21 03:00:00 UTC,2445202.625000,28.7317,-95.2428,0201,-8.46,-24.58,26.0000,199.0000
1982-08-21 03:30:00 UTC,2445202.645833,28.7317,-95.2428,0201,-8.96,-23.34,25.0000,201.0000
1982-08-21 04:00:00 UTC,2445202.666667,28.7317,-95.2428,0201,-8.99,-22.25,24.0000,202.0000
1982-08-21 04:30:00 UTC,2445202.687500,28.7317,-95.2428,0201,-9.77,-23.01,25.0000,203.0000
1982-08-21 05:00:00 UTC,2445202.708333,28.7317,-95.2428,0201,-10.57,-22.66,25.0000,205.0000
1982-08-21 05:30:00 UTC,2445202.729167,28.7317,-95.2428,0201,-11.35,-22.28,25.0000,207.0000
1982-08-21 06:00:00 UTC,2445202.750000,28.7317,-95.2428,0201,-12.50,-21.65,25.0000,210.0000
1982-08-21 06:30:00 UTC,2445202.770833,28.7317,-95.2428,0201,-13.84,-18.37,23.0000,217.0000
1982-08-21 07:00:00 UTC,2445202.791667,28.7317,-95.2428,0201,-14.32,-15.36,21.0000,223.0000
1982-08-21 07:30:00 UTC,2445202.812500,28.7317,-95.2428,0201,-13.89,-14.39,20.0000,224.0000
1982-08-21 08:00:00 UTC,2445202.833333,28.7317,-95.2428,0201,-14.85,-14.85,21.0000,225.0000
1982-08-21 08:30:00 UTC,2445202.854167,28.7317,-95.2428,0201,-15.61,-14.05,21.0000,228.0000
1982-08-21 09:00:00 UTC,2445202.875000,28.7317,-95.2428,0201,-15.09,-13.12,20.0000,229.0000
1982-08-21 09:30:00 UTC,2445202.895833,28.7317,-95.2428,0201,-13.16,-12.28,18.0000,227.0000
1982-08-21 10:00:00 UTC,2445202.916667,28.7317,-95.2428,0201,-12.95,-12.50,18.0000,226.0000
1982-08-21 10:30:00 UTC,2445202.937500,28.7317,-95.2428,0201,-14.12,-12.71,19.0000,228.0000
1982-08-21 11:00:00 UTC,2445202.958333,28.7317,-95.2428,0201,-14.86,-13.38,20.0000,228.0000
1982-08-21 11:30:00 UTC,2445202.979167,28.7317,-95.2428,0201,-15.11,-14.59,21.0000,226.0000
1982-08-21 12:00:00 UTC,2445203.000000,28.7317,-95.2428,0201,-15.00,-16.09,22.0000,223.0000
1982-08-21 12:30:00 UTC,2445203.020833,28.7317,-95.2428,0201,-14.78,-17.62,23.0000,220.0000
1982-08-21 13:00:00 UTC,2445203.041667,28.7317,-95.2428,0201,-15.10,-18.65,24.0000,219.0000
1982-08-21 13:30:00 UTC,2445203.062500,28.7317,-95.2428,0201,-15.73,-19.43,25.0000,219.0000
1982-08-21 14:00:00 UTC,2445203.083333,28.7317,-95.2428,0201,-14.78,-17.62,23.0000,220.0000
1982-08-21 14:30:00 UTC,2445203.104167,28.7317,-95.2428,0201,-13.85,-17.10,22.0000,219.0000
1982-08-21 15:00:00 UTC,2445203.125000,28.7317,-95.2428,0201,-13.54,-17.34,22.0000,218.0000
1982-08-21 15:30:00 UTC,2445203.145833,28.7317,-95.2428,0201,-13.78,-15.85,21.0000,221.0000
1982-08-21 16:00:00 UTC,2445203.166667,28.7317,-95.2428,0201,-13.20,-13.67,19.0000,224.0000
1982-08-21 16:30:00 UTC,2445203.187500,28.7317,-95.2428,0201,-12.50,-12.95,18.0000,224.0000
1982-08-21 17:00:00 UTC,2445203.208333,28.7317,-95.2428,0201,-10.91,-11.70,16.0000,223.0000
1982-08-21 17:30:00 UTC,2445203.229167,28.7317,-95.2428,0201,-9.37,-10.40,14.0000,222.0000
1982-08-21 18:00:00 UTC,2445203.250000,28.7317,-95.2428,0201,-8.18,-10.10,13.0000,219.0000
1982-08-21 18:30:00 UTC,2445203.270833,28.7317,-95.2428,0201,-7.82,-10.38,13.0000,217.0000
1982-08-21 19:00:00 UTC,2445203.291667,28.7317,-95.2428,0201,-8.00,-10.24,13.0000,218.0000
1982-08-21 19:30:00 UTC,2445203.312500,28.7317,-95.2428,0201,-7.82,-10.38,13.0000,217.0000
1982-08-21 20:00:00 UTC,2445203.333333,28.7317,-95.2428,0201,-7.62,-11.74,14.0000,213.0000
1982-08-21 20:30:00 UTC,2445203.354167,28.7317,-95.2428,0201,-7.00,-12.12,14.0000,210.0000
1982-08-21 21:00:00 UTC,2445203.375000,28.7317,-95.2428,0201,-7.27,-13.12,15.0000,209.0000
1982-08-21 21:30:00 UTC,2445203.395833,28.7317,-95.2428,0201,-7.76,-13.99,16.0000,209.0000
1982-08-21 22:00:00 UTC,2445203.416667,28.7317,-95.2428,0201,-7.98,-15.01,17.0000,208.0000
1982-08-21 22:30:00 UTC,2445203.437500,28.7317,-95.2428,0201,-7.32,-16.44,18.0000,204.0000
1982-08-21 23:00:00 UTC,2445203.458333,28.7317,-95.2428,0201,-7.18,-19.73,21.0000,200.0000
1982-08-21 23:30:00 UTC,2445203.479167,28.7317,-95.2428,0201,-7.81,-22.69,24.0000,199.0000
1982-08-22 00:00:00 UTC,2445203.500000,28.7317,-95.2428,0201,-8.55,-23.49,25.0000,200.0000
1982-08-22 00:30:00 UTC,2445203.520833,28.7317,-95.2428,0201,-9.74,-24.11,26.0000,202.0000
1982-08-22 01:00:00 UTC,2445203.541667,28.7317,-95.2428,0201,-10.11,-25.03,27.0000,202.0000
1982-08-22 01:30:00 UTC,2445203.562500,28.7317,-95.2428,0201,-10.55,-24.85,27.0000,203.0000
1982-08-22 02:00:00 UTC,2445203.583333,28.7317,-95.2428,0201,-11.83,-25.38,28.0000,205.0000
1982-08-22 02:30:00 UTC,2445203.604167,28.7317,-95.2428,0201,-12.26,-24.06,27.0000,207.0000
1982-08-22 03:00:00 UTC,2445203.625000,28.7317,-95.2428,0201,-12.61,-22.74,26.0000,209.0000
1982-08-22 03:30:00 UTC,2445203.645833,28.7317,-95.2428,0201,-12.88,-21.43,25.0000,211.0000
1982-08-22 04:00:00 UTC,2445203.666667,28.7317,-95.2428,0201,-12.00,-20.78,24.0000,210.0000
1982-08-22 04:30:00 UTC,2445203.687500,28.7317,-95.2428,0201,-11.50,-19.92,23.0000,210.0000
1982-08-22 05:00:00 UTC,2445203.708333,28.7317,-95.2428,0201,-11.66,-18.66,22.0000,212.0000
1982-08-22 05:30:00 UTC,2445203.729167,28.7317,-95.2428,0201,-12.05,-17.20,21.0000,215.0000
1982-08-22 06:00:00 UTC,2445203.750000,28.7317,-95.2428,0201,-12.59,-15.54,20.0000,219.0000
1982-08-22 06:30:00 UTC,2445203.770833,28.7317,-95.2428,0201,-11.81,-13.58,18.0000,221.0000
1982-08-22 07:00:00 UTC,2445203.791667,28.7317,-95.2428,0201,-10.91,-11.70,16.0000,223.0000
1982-08-22 07:30:00 UTC,2445203.812500,28.7317,-95.2428,0201,-10.61,-10.61,15.0000,225.0000
1982-08-22 08:00:00 UTC,2445203.833333,28.7317,-95.2428,0201,-11.66,-9.44,15.0000,231.0000
1982-08-22 08:30:00 UTC,2445203.854167,28.7317,-95.2428,0201,-11.47,-8.03,14.0000,235.0000
1982-08-22 09:00:00 UTC,2445203.875000,28.7317,-95.2428,0201,-10.65,-7.46,13.0000,235.0000
1982-08-22 09:30:00 UTC,2445203.895833,28.7317,-95.2428,0201,-10.65,-7.46,13.0000,235.0000
1982-08-22 10:00:00 UTC,2445203.916667,28.7317,-95.2428,0201,-9.95,-6.71,12.0000,236.0000
1982-08-22 10:30:00 UTC,2445203.937500,28.7317,-95.2428,0201,-9.58,-7.22,12.0000,233.0000
1982-08-22 11:00:00 UTC,2445203.958333,28.7317,-95.2428,0201,-9.81,-8.53,13.0000,229.0000
1982-08-22 11:30:00 UTC,2445203.979167,28.7317,-95.2428,0201,-8.63,-8.34,12.0000,226.0000
1982-08-22 12:00:00 UTC,2445204.000000,28.7317,-95.2428,0201,-8.87,-9.51,13.0000,223.0000
1982-08-22 12:30:00 UTC,2445204.020833,28.7317,-95.2428,0201,-9.18,-10.57,14.0000,221.0000
1982-08-22 13:00:00 UTC,2445204.041667,28.7317,-95.2428,0201,-10.28,-12.26,16.0000,220.0000
1982-08-22 13:30:00 UTC,2445204.062500,28.7317,-95.2428,0201,-10.93,-13.02,17.0000,220.0000
1982-08-22 14:00:00 UTC,2445204.083333,28.7317,-95.2428,0201,-11.81,-13.58,18.0000,221.0000
1982-08-22 14:30:00 UTC,2445204.104167,28.7317,-95.2428,0201,-11.81,-13.58,18.0000,221.0000
1982-08-22 15:00:00 UTC,2445204.125000,28.7317,-95.2428,0201,-11.57,-13.79,18.0000,220.0000
1982-08-22 15:30:00 UTC,2445204.145833,28.7317,-95.2428,0201,-10.93,-13.02,17.0000,220.0000
1982-08-22 16:00:00 UTC,2445204.166667,28.7317,-95.2428,0201,-9.84,-11.32,15.0000,221.0000
1982-08-22 16:30:00 UTC,2445204.187500,28.7317,-95.2428,0201,-9.84,-11.32,15.0000,221.0000
1982-08-22 17:00:00 UTC,2445204.208333,28.7317,-95.2428,0201,-9.00,-10.72,14.0000,220.0000
1982-08-22 17:30:00 UTC,2445204.229167,28.7317,-95.2428,0201,-8.00,-10.24,13.0000,218.0000
1982-08-22 18:00:00 UTC,2445204.250000,28.7317,-95.2428,0201,-6.31,-9.01,11.0000,215.0000
1982-08-22 18:30:00 UTC,2445204.270833,28.7317,-95.2428,0201,-6.02,-7.99,10.0000,217.0000
1982-08-22 19:00:00 UTC,2445204.291667,28.7317,-95.2428,0201,-6.29,-7.77,10.0000,219.0000
1982-08-22 19:30:00 UTC,2445204.312500,28.7317,-95.2428,0201,-5.54,-7.09,9.0000,218.0000
1982-08-22 20:00:00 UTC,2445204.333333,28.7317,-95.2428,0201,-6.69,-7.43,10.0000,222.0000
1982-08-22 20:30:00 UTC,2445204.354167,28.7317,-95.2428,0201,-7.31,-6.82,10.0000,227.0000
1982-08-22 21:00:00 UTC,2445204.375000,28.7317,-95.2428,0201,-6.58,-6.14,9.0000,227.0000
1982-08-22 21:30:00 UTC,2445204.395833,28.7317,-95.2428,0201,-6.25,-6.47,9.0000,224.0000
1982-08-22 22:00:00 UTC,2445204.416667,28.7317,-95.2428,0201,-5.35,-5.95,8.0000,222.0000
1982-08-22 22:30:00 UTC,2445204.437500,28.7317,-95.2428,0201,-4.70,-6.47,8.0000,216.0000
1982-08-22 23:00:00 UTC,2445204.458333,28.7317,-95.2428,0201,-4.77,-7.63,9.0000,212.0000
1982-08-22 23:30:00 UTC,2445204.479167,28.7317,-95.2428,0201,-5.45,-8.39,10.0000,213.0000
1982-08-23 00:00:00 UTC,2445204.500000,28.7317,-95.2428,0201,-6.71,-9.95,12.0000,214.0000
1982-08-23 00:30:00 UTC,2445204.520833,28.7317,-95.2428,0201,-7.21,-12.00,14.0000,211.0000
1982-08-23 01:00:00 UTC,2445204.541667,28.7317,-95.2428,0201,-7.50,-12.99,15.0000,210.0000
1982-08-23 01:30:00 UTC,2445204.562500,28.7317,-95.2428,0201,-8.24,-13.71,16.0000,211.0000
1982-08-23 02:00:00 UTC,2445204.583333,28.7317,-95.2428,0201,-9.51,-14.09,17.0000,214.0000
1982-08-23 02:30:00 UTC,2445204.604167,28.7317,-95.2428,0201,-10.83,-14.38,18.0000,217.0000
1982-08-23 03:00:00 UTC,2445204.625000,28.7317,-95.2428,0201,-11.33,-13.99,18.0000,219.0000
1982-08-23 03:30:00 UTC,2445204.645833,28.7317,-95.2428,0201,-11.33,-13.99,18.0000,219.0000
1982-08-23 04:00:00 UTC,2445204.666667,28.7317,-95.2428,0201,-10.93,-13.02,17.0000,220.0000
1982-08-23 04:30:00 UTC,2445204.687500,28.7317,-95.2428,0201,-10.42,-10.79,15.0000,224.0000
1982-08-23 05:00:00 UTC,2445204.708333,28.7317,-95.2428,0201,-10.24,-9.55,14.0000,227.0000
1982-08-23 05:30:00 UTC,2445204.729167,28.7317,-95.2428,0201,-9.51,-8.87,13.0000,227.0000
1982-08-23 06:00:00 UTC,2445204.750000,28.7317,-95.2428,0201,-8.34,-8.63,12.0000,224.0000
1982-08-23 06:30:00 UTC,2445204.770833,28.7317,-95.2428,0201,-7.36,-8.17,11.0000,222.0000
1982-08-23 07:00:00 UTC,2445204.791667,28.7317,-95.2428,0201,-5.90,-6.79,9.0000,221.0000
1982-08-23 07:30:00 UTC,2445204.812500,28.7317,-95.2428,0201,-4.50,-5.36,7.0000,220.0000
1982-08-23 08:00:00 UTC,2445204.833333,28.7317,-95.2428,0201,-2.12,-3.39,4.0000,212.0000
1982-08-23 08:30:00 UTC,2445204.854167,28.7317,-95.2428,0201,0.12,-0.99,1.0000,173.0000
1982-08-23 09:00:00 UTC,2445204.875000,28.7317,-95.2428,0201,1.99,0.17,2.0000,85.0000
1982-08-23 09:30:00 UTC,2445204.895833,28.7317,-95.2428,0201,3.93,0.76,4.0000,79.0000
1982-08-23 10:00:00 UTC,2445204.916667,28.7317,-95.2428,0201,3.80,1.24,4.0000,72.0000
1982-08-23 10:30:00 UTC,2445204.937500,28.7317,-95.2428,0201,4.70,1.71,5.0000,70.0000
1982-08-23 11:00:00 UTC,2445204.958333,28.7317,-95.2428,0201,4.70,1.71,5.0000,70.0000
1982-08-23 11:30:00 UTC,2445204.979167,28.7317,-95.2428,0201,4.78,1.46,5.0000,73.0000
1982-08-23 12:00:00 UTC,2445205.000000,28.7317,-95.2428,0201,4.95,0.70,5.0000,82.0000
1982-08-23 12:30:00 UTC,2445205.020833,28.7317,-95.2428,0201,4.97,0.52,5.0000,84.0000
1982-08-23 13:00:00 UTC,2445205.041667,28.7317,-95.2428,0201,3.94,0.69,4.0000,80.0000
1982-08-23 13:30:00 UTC,2445205.062500,28.7317,-95.2428,0201,2.96,0.47,3.0000,81.0000
1982-08-23 14:00:00 UTC,2445205.083333,28.7317,-95.2428,0201,2.94,0.57,3.0000,79.0000
1982-08-23 14:30:00 UTC,2445205.104167,28.7317,-95.2428,0201,1.92,0.55,2.0000,74.0000
1982-08-23 15:00:00 UTC,2445205.125000,28.7317,-95.2428,0201,1.95,0.45,2.0000,77.0000
1982-08-23 15:30:00 UTC,2445205.145833,28.7317,-95.2428,0201,2.98,0.31,3.0000,84.0000
1982-08-23 16:00:00 UTC,2445205.166667,28.7317,-95.2428,0201,4.00,0.07,4.0000,89.0000
1982-08-23 16:30:00 UTC,2445205.187500,28.7317,-95.2428,0201,5.00,0.00,5.0000,90.0000
1982-08-23 17:00:00 UTC,2445205.208333,28.7317,-95.2428,0201,4.96,0.61,5.0000,83.0000
1982-08-23 17:30:00 UTC,2445205.229167,28.7317,-95.2428,0201,4.70,1.71,5.0000,70.0000
1982-08-23 18:00:00 UTC,2445205.250000,28.7317,-95.2428,0201,5.25,2.91,6.0000,61.0000
1982-08-23 18:30:00 UTC,2445205.270833,28.7317,-95.2428,0201,5.59,4.21,7.0000,53.0000
1982-08-23 19:00:00 UTC,2445205.291667,28.7317,-95.2428,0201,5.12,4.77,7.0000,47.0000
1982-08-23 19:30:00 UTC,2445205.312500,28.7317,-95.2428,0201,5.03,6.22,8.0000,39.0000
1982-08-23 20:00:00 UTC,2445205.333333,28.7317,-95.2428,0201,5.03,7.46,9.0000,34.0000
1982-08-23 20:30:00 UTC,2445205.354167,28.7317,-95.2428,0201,5.15,8.57,10.0000,31.0000
1982-08-23 21:00:00 UTC,2445205.375000,28.7317,-95.2428,0201,5.50,9.53,11.0000,30.0000
1982-08-23 21:30:00 UTC,2445205.395833,28.7317,-95.2428,0201,5.45,10.69,12.0000,27.0000
1982-08-23 22:00:00 UTC,2445205.416667,28.7317,-95.2428,0201,5.49,11.78,13.0000,25.0000
1982-08-23 22:30:00 UTC,2445205.437500,28.7317,-95.2428,0201,5.69,12.79,14.0000,24.0000
1982-08-23 23:00:00 UTC,2445205.458333,28.7317,-95.2428,0201,6.58,13.48,15.0000,26.0000
1982-08-23 23:30:00 UTC,2445205.479167,28.7317,-95.2428,0201,7.26,14.26,16.0000,27.0000
1982-08-24 00:00:00 UTC,2445205.500000,28.7317,-95.2428,0201,7.72,15.15,17.0000,27.0000
1982-08-24 00:30:00 UTC,2445205.520833,28.7317,-95.2428,0201,7.98,15.01,17.0000,28.0000
1982-08-24 01:00:00 UTC,2445205.541667,28.7317,-95.2428,0201,7.98,15.01,17.0000,28.0000
1982-08-24 01:30:00 UTC,2445205.562500,28.7317,-95.2428,0201,7.98,15.01,17.0000,28.0000
1982-08-24 02:00:00 UTC,2445205.583333,28.7317,-95.2428,0201,9.27,15.43,18.0000,31.0000
1982-08-24 02:30:00 UTC,2445205.604167,28.7317,-95.2428,0201,9.01,14.42,17.0000,32.0000
1982-08-24 03:00:00 UTC,2445205.625000,28.7317,-95.2428,0201,9.01,14.42,17.0000,32.0000
1982-08-24 03:30:00 UTC,2445205.645833,28.7317,-95.2428,0201,8.76,14.57,17.0000,31.0000
1982-08-24 04:00:00 UTC,2445205.666667,28.7317,-95.2428,0201,8.76,14.57,17.0000,31.0000
1982-08-24 04:30:00 UTC,2445205.687500,28.7317,-95.2428,0201,10.07,14.92,18.0000,34.0000
1982-08-24 05:00:00 UTC,2445205.708333,28.7317,-95.2428,0201,10.32,14.74,18.0000,35.0000
1982-08-24 05:30:00 UTC,2445205.729167,28.7317,-95.2428,0201,11.70,14.97,19.0000,38.0000
1982-08-24 06:00:00 UTC,2445205.750000,28.7317,-95.2428,0201,13.20,13.67,19.0000,44.0000
1982-08-24 06:30:00 UTC,2445205.770833,28.7317,-95.2428,0201,13.67,13.20,19.0000,46.0000
1982-08-24 07:00:00 UTC,2445205.791667,28.7317,-95.2428,0201,13.90,12.96,19.0000,47.0000
1982-08-24 07:30:00 UTC,2445205.812500,28.7317,-95.2428,0201,14.86,13.38,20.0000,48.0000
1982-08-24 08:00:00 UTC,2445205.833333,28.7317,-95.2428,0201,15.61,14.05,21.0000,48.0000
1982-08-24 08:30:00 UTC,2445205.854167,28.7317,-95.2428,0201,15.83,15.28,22.0000,46.0000
1982-08-24 09:00:00 UTC,2445205.875000,28.7317,-95.2428,0201,14.72,16.35,22.0000,42.0000
1982-08-24 09:30:00 UTC,2445205.895833,28.7317,-95.2428,0201,15.75,18.11,24.0000,41.0000
1982-08-24 10:00:00 UTC,2445205.916667,28.7317,-95.2428,0201,16.73,18.58,25.0000,42.0000
1982-08-24 10:30:00 UTC,2445205.937500,28.7317,-95.2428,0201,17.40,19.32,26.0000,42.0000
1982-08-24 11:00:00 UTC,2445205.958333,28.7317,-95.2428,0201,17.73,19.02,26.0000,43.0000
1982-08-24 11:30:00 UTC,2445205.979167,28.7317,-95.2428,0201,18.06,18.70,26.0000,44.0000
1982-08-24 12:00:00 UTC,2445206.000000,28.7317,-95.2428,0201,17.26,16.67,24.0000,46.0000
1982-08-24 12:30:00 UTC,2445206.020833,28.7317,-95.2428,0201,16.26,16.26,23.0000,45.0000
1982-08-24 13:00:00 UTC,2445206.041667,28.7317,-95.2428,0201,13.78,15.85,21.0000,41.0000
1982-08-24 13:30:00 UTC,2445206.062500,28.7317,-95.2428,0201,12.86,15.32,20.0000,40.0000
1982-08-24 14:00:00 UTC,2445206.083333,28.7317,-95.2428,0201,13.64,14.63,20.0000,43.0000
1982-08-24 14:30:00 UTC,2445206.104167,28.7317,-95.2428,0201,14.39,13.89,20.0000,46.0000
1982-08-24 15:00:00 UTC,2445206.125000,28.7317,-95.2428,0201,13.90,12.96,19.0000,47.0000
1982-08-24 15:30:00 UTC,2445206.145833,28.7317,-95.2428,0201,12.08,10.50,16.0000,49.0000
1982-08-24 16:00:00 UTC,2445206.166667,28.7317,-95.2428,0201,11.32,9.84,15.0000,49.0000
1982-08-24 16:30:00 UTC,2445206.187500,28.7317,-95.2428,0201,9.66,8.70,13.0000,48.0000
1982-08-24 17:00:00 UTC,2445206.208333,28.7317,-95.2428,0201,9.51,8.87,13.0000,47.0000
1982-08-24 17:30:00 UTC,2445206.229167,28.7317,-95.2428,0201,9.03,9.35,13.0000,44.0000
1982-08-24 18:00:00 UTC,2445206.250000,28.7317,-95.2428,0201,8.36,9.96,13.0000,40.0000
1982-08-24 18:30:00 UTC,2445206.270833,28.7317,-95.2428,0201,8.23,11.33,14.0000,36.0000
1982-08-24 19:00:00 UTC,2445206.291667,28.7317,-95.2428,0201,8.39,12.44,15.0000,34.0000
1982-08-24 19:30:00 UTC,2445206.312500,28.7317,-95.2428,0201,8.17,12.58,15.0000,33.0000
1982-08-24 20:00:00 UTC,2445206.333333,28.7317,-95.2428,0201,7.83,11.61,14.0000,34.0000
1982-08-24 20:30:00 UTC,2445206.354167,28.7317,-95.2428,0201,8.03,11.47,14.0000,35.0000
1982-08-24 21:00:00 UTC,2445206.375000,28.7317,-95.2428,0201,7.95,12.72,15.0000,32.0000
1982-08-24 21:30:00 UTC,2445206.395833,28.7317,-95.2428,0201,7.04,13.24,15.0000,28.0000
1982-08-24 22:00:00 UTC,2445206.416667,28.7317,-95.2428,0201,6.76,14.50,16.0000,25.0000
1982-08-24 22:30:00 UTC,2445206.437500,28.7317,-95.2428,0201,7.18,15.41,17.0000,25.0000
1982-08-24 23:00:00 UTC,2445206.458333,28.7317,-95.2428,0201,8.45,15.89,18.0000,28.0000
1982-08-24 23:30:00 UTC,2445206.479167,28.7317,-95.2428,0201,8.73,15.74,18.0000,29.0000
1982-08-25 00:00:00 UTC,2445206.500000,28.7317,-95.2428,0201,7.51,14.13,16.0000,28.0000
1982-08-25 00:30:00 UTC,2445206.520833,28.7317,-95.2428,0201,7.26,14.26,16.0000,27.0000
1982-08-25 01:00:00 UTC,2445206.541667,28.7317,-95.2428,0201,6.76,14.50,16.0000,25.0000
1982-08-25 01:30:00 UTC,2445206.562500,28.7317,-95.2428,0201,7.01,14.38,16.0000,26.0000
1982-08-25 02:00:00 UTC,2445206.583333,28.7317,-95.2428,0201,8.76,14.57,17.0000,31.0000
1982-08-25 02:30:00 UTC,2445206.604167,28.7317,-95.2428,0201,11.43,15.17,19.0000,37.0000
1982-08-25 03:00:00 UTC,2445206.625000,28.7317,-95.2428,0201,13.64,14.63,20.0000,43.0000
1982-08-25 03:30:00 UTC,2445206.645833,28.7317,-95.2428,0201,14.85,14.85,21.0000,45.0000
1982-08-25 04:00:00 UTC,2445206.666667,28.7317,-95.2428,0201,14.85,14.85,21.0000,45.0000
1982-08-25 04:30:00 UTC,2445206.687500,28.7317,-95.2428,0201,13.89,14.39,20.0000,44.0000
1982-08-25 05:00:00 UTC,2445206.708333,28.7317,-95.2428,0201,13.20,13.67,19.0000,44.0000
1982-08-25 05:30:00 UTC,2445206.729167,28.7317,-95.2428,0201,14.63,13.64,20.0000,47.0000
1982-08-25 06:00:00 UTC,2445206.750000,28.7317,-95.2428,0201,14.63,13.64,20.0000,47.0000
1982-08-25 06:30:00 UTC,2445206.770833,28.7317,-95.2428,0201,13.44,13.44,19.0000,45.0000
1982-08-25 07:00:00 UTC,2445206.791667,28.7317,-95.2428,0201,12.73,12.73,18.0000,45.0000
1982-08-25 07:30:00 UTC,2445206.812500,28.7317,-95.2428,0201,13.90,12.96,19.0000,47.0000
1982-08-25 08:00:00 UTC,2445206.833333,28.7317,-95.2428,0201,14.63,13.64,20.0000,47.0000
1982-08-25 08:30:00 UTC,2445206.854167,28.7317,-95.2428,0201,13.90,12.96,19.0000,47.0000
1982-08-25 09:00:00 UTC,2445206.875000,28.7317,-95.2428,0201,14.39,13.89,20.0000,46.0000
1982-08-25 09:30:00 UTC,2445206.895833,28.7317,-95.2428,0201,14.59,15.11,21.0000,44.0000
1982-08-25 10:00:00 UTC,2445206.916667,28.7317,-95.2428,0201,15.28,15.83,22.0000,44.0000
1982-08-25 10:30:00 UTC,2445206.937500,28.7317,-95.2428,0201,14.72,16.35,22.0000,42.0000
1982-08-25 11:00:00 UTC,2445206.958333,28.7317,-95.2428,0201,13.50,16.09,21.0000,40.0000
1982-08-25 11:30:00 UTC,2445206.979167,28.7317,-95.2428,0201,13.38,14.86,20.0000,42.0000
1982-08-25 12:00:00 UTC,2445207.000000,28.7317,-95.2428,0201,14.14,14.14,20.0000,45.0000
1982-08-25 12:30:00 UTC,2445207.020833,28.7317,-95.2428,0201,14.14,14.14,20.0000,45.0000
1982-08-25 13:00:00 UTC,2445207.041667,28.7317,-95.2428,0201,12.50,12.95,18.0000,44.0000
1982-08-25 13:30:00 UTC,2445207.062500,28.7317,-95.2428,0201,12.50,12.95,18.0000,44.0000
1982-08-25 14:00:00 UTC,2445207.083333,28.7317,-95.2428,0201,12.02,12.02,17.0000,45.0000
1982-08-25 14:30:00 UTC,2445207.104167,28.7317,-95.2428,0201,11.32,9.84,15.0000,49.0000
1982-08-25 15:00:00 UTC,2445207.125000,28.7317,-95.2428,0201,10.72,9.00,14.0000,50.0000
1982-08-25 15:30:00 UTC,2445207.145833,28.7317,-95.2428,0201,9.81,8.53,13.0000,49.0000
1982-08-25 16:00:00 UTC,2445207.166667,28.7317,-95.2428,0201,9.06,7.87,12.0000,49.0000
1982-08-25 16:30:00 UTC,2445207.187500,28.7317,-95.2428,0201,8.30,7.22,11.0000,49.0000
1982-08-25 17:00:00 UTC,2445207.208333,28.7317,-95.2428,0201,7.55,6.56,10.0000,49.0000
1982-08-25 17:30:00 UTC,2445207.229167,28.7317,-95.2428,0201,7.43,6.69,10.0000,48.0000
1982-08-25 18:00:00 UTC,2445207.250000,28.7317,-95.2428,0201,7.07,7.07,10.0000,45.0000
1982-08-25 18:30:00 UTC,2445207.270833,28.7317,-95.2428,0201,6.69,7.43,10.0000,42.0000
1982-08-25 19:00:00 UTC,2445207.291667,28.7317,-95.2428,0201,6.16,7.88,10.0000,38.0000
1982-08-25 19:30:00 UTC,2445207.312500,28.7317,-95.2428,0201,6.31,9.01,11.0000,35.0000
1982-08-25 20:00:00 UTC,2445207.333333,28.7317,-95.2428,0201,6.71,9.95,12.0000,34.0000
1982-08-25 20:30:00 UTC,2445207.354167,28.7317,-95.2428,0201,6.54,10.06,12.0000,33.0000
1982-08-25 21:00:00 UTC,2445207.375000,28.7317,-95.2428,0201,6.00,10.39,12.0000,30.0000
1982-08-25 21:30:00 UTC,2445207.395833,28.7317,-95.2428,0201,6.10,11.48,13.0000,28.0000
1982-08-25 22:00:00 UTC,2445207.416667,28.7317,-95.2428,0201,5.70,11.68,13.0000,26.0000
1982-08-25 22:30:00 UTC,2445207.437500,28.7317,-95.2428,0201,5.69,12.79,14.0000,24.0000
1982-08-25 23:00:00 UTC,2445207.458333,28.7317,-95.2428,0201,6.34,13.59,15.0000,25.0000
1982-08-25 23:30:00 UTC,2445207.479167,28.7317,-95.2428,0201,7.51,14.13,16.0000,28.0000
1982-08-26 00:00:00 UTC,2445207.500000,28.7317,-95.2428,0201,8.50,14.72,17.0000,30.0000
1982-08-26 00:30:00 UTC,2445207.520833,28.7317,-95.2428,0201,8.50,14.72,17.0000,30.0000
1982-08-26 01:00:00 UTC,2445207.541667,28.7317,-95.2428,0201,8.50,14.72,17.0000,30.0000
1982-08-26 01:30:00 UTC,2445207.562500,28.7317,-95.2428,0201,8.24,13.71,16.0000,31.0000
1982-08-26 02:00:00 UTC,2445207.583333,28.7317,-95.2428,0201,8.24,13.71,16.0000,31.0000
1982-08-26 02:30:00 UTC,2445207.604167,28.7317,-95.2428,0201,7.50,12.99,15.0000,30.0000
1982-08-26 03:00:00 UTC,2445207.625000,28.7317,-95.2428,0201,7.50,12.99,15.0000,30.0000
1982-08-26 03:30:00 UTC,2445207.645833,28.7317,-95.2428,0201,7.50,12.99,15.0000,30.0000
1982-08-26 04:00:00 UTC,2445207.666667,28.7317,-95.2428,0201,7.21,12.00,14.0000,31.0000
1982-08-26 04:30:00 UTC,2445207.687500,28.7317,-95.2428,0201,7.42,11.87,14.0000,32.0000
1982-08-26 05:00:00 UTC,2445207.708333,28.7317,-95.2428,0201,7.21,12.00,14.0000,31.0000
1982-08-26 05:30:00 UTC,2445207.729167,28.7317,-95.2428,0201,7.21,12.00,14.0000,31.0000
1982-08-26 06:00:00 UTC,2445207.750000,28.7317,-95.2428,0201,7.08,10.90,13.0000,33.0000